Flag for U.S.A. Weather past 2 weeks in Denver, Colorado, U.S.A.

Now
33 °F

Overcast.


Feels Like: 30 °F
Forecast: 29 / 43 °F
Wind: 3 mph from Northeast

Location: Buckley Air Force Base

Current Time: Jan 31, 2015 at 3:25:34 AM

Latest Report: Jan 31, 2015 at 2:58 AM


Visibility: 10 mi

Pressure: 29.93 "Hg

Humidity: 71%

Dew point: 25 °F

Location of DenverLocation

Historic Weather in Denver — Graph

°F

Denver temperature yesterday

Maximum temperature yesterday: 46 °F (at 2:58 PM)
Minimum temperature yesterday: 32 °F (at 6:58 AM)
Average temperature yesterday: 38 °F

Past Weeks' High & Low Weather Summary

 TemperatureHumidityPressure
High73 °F (Jan 27, 2:58 PM)100% (Jan 20, 3:03 AM)30.54 "Hg (Jan 20, 3:03 AM)
Low11 °F (Jan 22, 3:58 AM)10% (Jan 27, 1:58 PM)29.78 "Hg (Jan 16, 3:58 PM)
Average40 °F49%30.13 "Hg
* Reported Jan 16 1:58 AM — Jan 31 1:58 AM, Denver, Weather by CustomWeather, © 2014

Note: Actual official high and low records may vary slightly from our data, if they occured in-between our weather recording intervals... More about our weather records

Advertising

Denver weather history for previous 24 hours

 ConditionsComfort  
Time TempWeatherWind HumidityBarometerVisibility
1:58 AM
Jan 31
34 °FMostly cloudy.3 mph71%29.94 "Hg10 mi
12:58 AM34 °FMostly cloudy.2 mph71%29.97 "Hg10 mi
11:58 PM
Jan 30
34 °FMostly cloudy.5 mph70%30.01 "Hg10 mi
10:58 PM36 °FOvercast.6 mph72%30.03 "Hg10 mi
9:58 PM36 °FPartly cloudy.6 mph71%30.06 "Hg10 mi
8:58 PM38 °FMostly cloudy.7 mph64%30.06 "Hg10 mi
7:58 PM39 °FMostly cloudy.3 mph61%30.09 "Hg10 mi
6:58 PM39 °FMostly cloudy.5 mph59%30.09 "Hg10 mi
5:58 PM40 °FMostly cloudy.5 mph57%30.09 "Hg10 mi
4:58 PM43 °FMostly cloudy.6 mph52%30.07 "Hg10 mi
3:58 PM45 °FMore clouds than sun.5 mph45%30.06 "Hg10 mi
2:58 PM46 °FOvercast.5 mph44%30.04 "Hg10 mi
1:58 PM46 °FMostly cloudy.5 mph45%30.04 "Hg10 mi
12:58 PM44 °FMostly cloudy.6 mph49%30.09 "Hg10 mi
11:58 AM43 °FPartly sunny.5 mph52%30.12 "Hg10 mi
10:58 AM41 °FMostly cloudy.2 mph54%30.16 "Hg10 mi
9:58 AM40 °FMostly cloudy.3 mph56%30.17 "Hg10 mi
8:58 AM36 °FMostly cloudy.2 mph63%30.19 "Hg10 mi
7:58 AM32 °FPartly sunny.2 mph74%30.21 "Hg10 mi
6:58 AM32 °FPassing clouds.3 mph75%30.22 "Hg10 mi
5:58 AM32 °FMostly cloudy.3 mph75%30.23 "Hg10 mi
4:58 AM33 °FOvercast.5 mph73%30.21 "Hg10 mi
3:58 AM33 °FOvercast.5 mph67%30.20 "Hg10 mi
Weather by CustomWeather, © 2014

See weather overviewHow to use our weather pages